Orbital Elements at Epoch 2459200.5 (2020-Dec-17.0) TDB
Reference: JPL 36 (heliocentric ecliptic J2000)
Element | Value | Uncertainty (1-sigma) | Units |
e | .008795326889360085 | 3.7078e-08 | |
a | 2.897435086529793 | 1.2593e-08 | au |
q | 2.871951197803062 | 1.048e-07 | au |
i | 2.830879243337238 | 3.7674e-06 | deg |
node | 56.07747331693142 | 7.5639e-05 | deg |
peri | 97.65645673134362 | 0.00021949 | deg |
M | 170.7611371159029 | 0.00020649 | deg |
tp | 2458346.012848919238 (2018-Aug-15.51284892) | 0.0010331 | TDB |
period | 1801.436671039983 4.93 | 1.1744e-05 3.215e-08 | d yr |
n | .1998404971917049 | 1.3029e-09 | deg/d |
Q | 2.922918975256524 | 1.2704e-08 | au |
|
| | Orbit Determination Parameters
Additional Information
|